sat.trackr.live / text

‹ back to catalog

STARLINK-11381 [DTC]

NORAD 62094 · 2024-220G

PAYLOAD ACTIVE UNKNOWN

§ Identity

Operator
Country
US
Launch date
2024-11-25
Launch site
AFETR
Launch vehicle
Mass (kg)
RCS (m²)

Purposes: comms

External: N2YO · Heavens-Above · Gunter

§ Orbital elements

Epoch: 2026-05-24T20:38:51.757728Z

Period
91.67 min
Inclination
42.9992°
Eccentricity
0.0001471
Mean motion
15.70882095 rev/d
Perigee alt
355.4 km
Apogee alt
357.4 km
Semi-major
6,734.5 km
B*
1.6152e-3
RAAN
303.8715°
Arg perigee
267.7017°
Mean anomaly
92.3682°
Rev number
8,693

§ Raw data

STARLINK-11381 [DTC]1 62094U 24220G   26144.86032127  .00212563  00000+0  16152-2 0  99922 62094  42.9992 303.8715 0001471 267.7017  92.3682 15.70882095 86939

JSON: /api/v1/satellites/62094 · /tle

For live sub-satellite position, see the globe view (requires WebGL).

§ Visibility from observer

Set your observer location to see the next 7 days of passes ≥ 10°. The values pass through the URL so the page stays shareable.

No JS? Fill the form by hand. The geolocation button needs JavaScript.